Home > Weather > Wörgl > Past weeks

Flag for Austria Past Weather in Wörgl, Tyrol, Austria — Yesterday and Last 2 Weeks

Now
72 °F

Mild.


Feels Like: 77 °F
Forecast: 56 / 83 °F
Wind: 1 mph from Southwest

Location: Kufstein

Current Time: Jun 28, 2016 at 1:33:35 PM

Latest Report: Jun 28, 2016 at 12:00 PM


Visibility: N/A

Pressure: 30.06 "Hg (28.32 "Hg at 514m altitude)

Humidity: 49%

Dew Point: 52 °F

Location of WörglLocation

Past Weather in Wörgl — Graph

°F

Wörgl Temperature Yesterday

Maximum temperature yesterday: 71 °F (at 7:00 PM)
Minimum temperature yesterday: 54 °F (at 4:00 AM)
Average temperature yesterday: 60 °F

High & Low Weather Summary for the Past Weeks

 TemperatureHumidityPressure
High89 °F (Jun 24, 3:00 PM)97% (Jun 18, 1:00 AM)30.27 "Hg (Jun 18, 1:00 AM)
Low51 °F (Jun 18, 7:00 AM)36% (Jun 24, 6:00 PM)29.44 "Hg (Jun 16, 3:00 PM)
Average63 °F77%29.97 "Hg
* Reported Jun 13 12:00 PM — Jun 28 12:00 PM, Wörgl, Weather by CustomWeather, © 2016

Note: Actual official high and low records may vary slightly from our data, if they occured in-between our weather recording intervals... More about our weather records

Advertising

Wörgl Weather History for the Previous 24 Hours

Scroll right to see more
 ConditionsComfort  
Time TempWeatherWind HumidityBarometerVisibility
12:00 PM
Tue, Jun 28
72 °FMild.1 mph49%30.06 "HgN/A
11:00 AM70 °FMild.1 mph53%30.08 "HgN/A
10:00 AM67 °FMild.2 mph62%30.09 "HgN/A
9:00 AM64 °FMild.1 mph67%30.11 "HgN/A
8:00 AM60 °FCool.2 mph76%30.14 "HgN/A
7:00 AM58 °FCool.1 mph83%30.15 "HgN/A
6:00 AM58 °FCool.2 mph85%30.15 "HgN/A
5:00 AM57 °FCool.1 mph86%30.16 "HgN/A
4:00 AM58 °FCool.1 mph84%30.16 "HgN/A
3:00 AM58 °FCool.1 mph82%30.17 "HgN/A
2:00 AM59 °FCool.1 mph81%30.17 "HgN/A
1:00 AM59 °FCool.1 mph80%30.16 "HgN/A
12:00 AM60 °FCool.1 mph80%30.17 "HgN/A
11:00 PM
Mon, Jun 27
60 °FCool.No wind80%30.16 "HgN/A
10:00 PM60 °FCool.No wind76%30.15 "HgN/A
9:00 PM64 °FMild.1 mph69%30.12 "HgN/A
8:00 PM68 °FMild.No wind56%30.10 "HgN/A
7:00 PM71 °FMild.1 mph53%30.09 "HgN/A
6:00 PM69 °FMild.2 mph52%30.08 "HgN/A
5:00 PM69 °FMild.3 mph54%30.09 "HgN/A
4:00 PM69 °FMild.2 mph54%30.09 "HgN/A
3:00 PM65 °FMild.2 mph62%30.12 "HgN/A
2:00 PM64 °FMild.2 mph63%30.14 "HgN/A
1:00 PM62 °FCool.3 mph69%30.16 "HgN/A
Weather by CustomWeather, © 2016

See weather overviewHow to use our weather pages